[[{"header":{"parameterUnit":"m.s-1","parameterCategory":1,"la1":30.2991,"la2":30.254,"lo1":-89.0895,"lo2":-89.0444,"dy":0.0017,"dx":0.0017,"nx":28,"ny":28,"refTime":"2023-07-23T03:00:00:Z","depth":0,"parameterNumber":2,"parameterNumberName":"U-component_of_WINDS"},"data":[0,0,0,0,0,0,0,0,0,0,0,0,0,0,0,0,0,0,0,0,0,0,0,0,0,0,0,0,0,0,0,0,0,0,0,0,0,0,0,0,0,0,0,0,0,0,0,0,0,0,0,0,0,0,0,0,0,0,-0.489,-0.489,0,-0.4857,-0.4857,-0.4857,-0.4799,-0.4798,-0.4797,-0.4796,-0.4764,-0.4764,-0.4764,0,0,0,0,0,0,0,0,0,0,0,0,0,-0.4903,-0.4904,-0.489,-0.489,-0.4889,-0.4857,-0.4857,-0.4856,-0.4799,-0.4798,-0.4797,-0.4796,-0.4764,-0.4764,-0.4764,0,0,0,0,0,0,0,0,0,0,0,0,0,-0.4887,-0.4904,-0.489,-0.4857,-0.4854,-0.4857,-0.4857,-0.4856,-0.48,-0.4798,-0.4796,-0.4795,-0.4764,-0.4764,-0.4764,-0.4798,0,0,-0.4765,-0.4765,0,0,0,0,0,0,0,0,-0.4888,-0.4887,-0.4862,-0.4859,-0.4855,-0.4831,-0.485,-0.4837,-0.48,-0.482,-0.4796,-0.4794,-0.4787,-0.4786,-0.4783,-0.4797,-0.4795,-0.4765,-0.4765,-0.4765,-0.4765,0,0,0,0,0,0,0,-0.4889,-0.4888,-0.4877,-0.4862,-0.4858,-0.4844,-0.484,-0.4847,-0.4813,-0.4818,-0.4814,-0.4811,-0.4785,-0.4783,-0.4782,-0.4795,-0.4765,-0.4765,-0.4765,-0.4765,-0.4833,-0.4834,0,0,0,0,0,0,-0.4895,-0.4889,-0.4878,-0.4876,-0.4868,-0.4845,-0.484,-0.484,-0.4813,-0.4807,-0.4812,-0.4808,-0.4783,-0.4782,-0.4781,-0.4817,-0.4765,-0.4765,-0.4765,-0.4831,-0.4833,-0.4835,0,0,0,0,0,0,-0.4896,-0.4895,-0.4879,-0.4881,-0.4878,-0.4846,-0.4847,-0.4841,-0.4838,-0.4809,-0.4802,-0.4816,-0.4782,-0.478,-0.4794,-0.4815,-0.4765,-0.4766,-0.4829,-0.4832,-0.4834,-0.4892,0,0,0,0,0,0,-0.4896,-0.4895,-0.4908,-0.4882,-0.4878,-0.4893,-0.4848,-0.4841,-0.4839,-0.4833,-0.4811,-0.4805,-0.4781,-0.4794,-0.4794,-0.4815,-0.4766,-0.4827,-0.483,-0.4833,-0.4888,-0.4896,-0.4903,0,0,0,0,0,-0.4897,-0.4926,-0.4909,-0.4908,-0.4893,-0.4895,-0.4893,-0.4863,-0.4841,-0.4853,-0.4834,-0.4806,-0.4813,-0.4796,-0.4795,-0.4817,-0.4826,-0.483,-0.4833,-0.4885,-0.4895,-0.4903,0,0,0,0,0,0,-0.4956,-0.4922,-0.4902,-0.4924,-0.4913,-0.4885,-0.4899,-0.4875,-0.487,-0.4865,-0.483,-0.4825,-0.4843,-0.4831,-0.4812,-0.4847,-0.4815,-0.4819,-0.4854,-0.4864,-0.4871,-0.4873,-0.4766,0,0,0,0,0,-0.4971,-0.4974,-0.4945,-0.4967,-0.4962,-0.4932,-0.4931,-0.491,-0.4897,-0.4892,-0.4874,-0.4862,-0.4861,-0.4862,-0.486,-0.4886,-0.488,-0.4901,-0.4908,-0.4915,-0.4918,-0.493,-0.4939,-0.4847,-0.4847,-0.4847,0,0,-0.5003,-0.4985,-0.4989,-0.4978,-0.4967,-0.4971,-0.4928,-0.4935,-0.4938,-0.4893,-0.4904,-0.489,-0.4875,-0.4895,-0.4903,-0.4886,-0.4942,-0.492,-0.4925,-0.4925,-0.4935,-0.4943,-0.4951,-0.485,-0.4849,-0.4849,0,0,-0.5063,-0.505,-0.5066,-0.5055,-0.5038,-0.5018,-0.5022,-0.4998,-0.4987,-0.4998,-0.4964,-0.4967,-0.4967,-0.4957,-0.4952,-0.5008,-0.4981,-0.5008,-0.5047,-0.5059,-0.5066,-0.5073,-0.5091,-0.5099,-0.5012,-0.5012,-0.5012,0,-0.5104,-0.5109,-0.5077,-0.5086,-0.5082,-0.5041,-0.5056,-0.5048,-0.5032,-0.5029,-0.5011,-0.5009,-0.4996,-0.5012,-0.5026,-0.5024,-0.5026,-0.501,-0.5068,-0.5074,-0.5079,-0.5096,-0.5104,-0.5015,-0.5015,-0.5015,-0.5014,0,-0.5161,-0.5165,-0.518,-0.5164,-0.5162,-0.5174,-0.5144,-0.5146,-0.5124,-0.5106,-0.5117,-0.51,-0.5093,-0.5095,-0.5075,-0.5109,-0.5098,-0.5075,-0.5041,-0.5092,-0.5107,-0.5114,-0.502,-0.5019,-0.5018,-0.5017,0,0,-0.5256,-0.5222,-0.5228,-0.522,-0.5199,-0.5201,-0.5211,-0.5204,-0.5206,-0.5196,-0.5203,-0.5204,-0.5181,-0.5176,-0.5154,-0.5164,-0.5208,-0.5139,-0.5138,-0.5151,-0.5242,-0.526,-0.5268,-0.5191,-0.5192,-0.5193,-0.5243,0,-0.531,-0.5326,-0.5297,-0.5319,-0.5322,-0.5283,-0.5292,-0.5279,-0.5263,-0.5262,-0.5244,-0.5244,-0.5215,-0.5211,-0.522,-0.5201,-0.5226,-0.5197,-0.5197,-0.5197,-0.52,-0.5276,-0.5295,-0.5343,-0.5249,-0.525,-0.5251,0,-0.5376,-0.5368,-0.539,-0.5366,-0.5366,-0.5375,-0.5365,-0.5366,-0.5351,-0.5338,-0.5332,-0.5306,-0.5314,-0.5282,-0.5292,-0.5273,-0.5272,-0.5262,-0.5263,-0.5261,-0.5226,-0.5275,-0.5358,-0.5365,-0.5261,-0.526,-0.5259,0,-0.5441,-0.5437,-0.5449,-0.5444,-0.5417,-0.5423,-0.5412,-0.5396,-0.5393,-0.5385,-0.5383,-0.5376,-0.5372,-0.5368,-0.534,-0.532,-0.5353,-0.532,-0.5342,-0.5343,-0.535,-0.535,-0.5432,-0.5351,-0.5351,-0.5351,-0.5351,0,-0.5504,-0.5519,-0.5478,-0.5486,-0.5501,-0.5468,-0.5484,-0.5469,-0.5455,-0.5458,-0.5425,-0.5429,-0.5393,-0.5394,-0.5372,-0.5383,-0.5382,-0.5371,-0.5365,-0.5373,-0.5375,-0.5371,-0.5366,-0.5353,-0.5352,-0.5352,-0.5352,0,-0.558,-0.5553,-0.5564,-0.5537,-0.5531,-0.5543,-0.552,-0.5525,-0.5507,-0.5512,-0.5511,-0.5481,-0.5479,-0.5452,-0.5445,-0.543,-0.5449,-0.5438,-0.5454,-0.545,-0.5473,-0.5471,-0.5555,-0.5564,-0.5479,-0.548,-0.548,0,-0.5621,-0.5631,-0.5605,-0.5605,-0.5595,-0.5596,-0.5593,-0.5561,-0.5559,-0.5543,-0.555,-0.5546,-0.554,-0.554,-0.5517,-0.5511,-0.5498,-0.5528,-0.5497,-0.5505,-0.5497,-0.5496,-0.5496,-0.5534,-0.5536,-0.5536,-0.5537,0,-0.5696,-0.5682,-0.5679,-0.5671,-0.5668,-0.5661,-0.5651,-0.5653,-0.5618,-0.5617,-0.5615,-0.5611,-0.5603,-0.5599,-0.5589,-0.5577,-0.5551,-0.5547,-0.5552,-0.556,-0.5568,-0.5563,-0.5471,-0.5545,-0.5544,-0.5544,-0.5543,-0.5543,-0.5754,-0.5761,-0.5744,-0.5741,-0.573,-0.5722,-0.5725,-0.5707,-0.5704,-0.5695,-0.5677,-0.5677,-0.5661,-0.5645,-0.5636,-0.5635,-0.562,-0.5627,-0.5628,-0.563,-0.5634,-0.557,-0.5633,-0.5633,-0.5633,-0.5633,-0.5632,0,-0.5826,-0.5813,-0.5811,-0.5798,-0.5796,-0.5772,-0.576,-0.576,-0.576,-0.5748,-0.5743,-0.574,-0.5736,-0.5713,-0.5706,-0.571,-0.5698,-0.5709,-0.5707,-0.5705,-0.5649,-0.5645,-0.5719,-0.5719,-0.5719,-0.5719,-0.5719,-0.5719,-0.5863,-0.5873,-0.5858,-0.5862,-0.5849,-0.5849,-0.5844,-0.5836,-0.5825,-0.5823,-0.5819,-0.5805,-0.5788,-0.5779,-0.5773,-0.5767,-0.5765,-0.578,-0.577,-0.5717,-0.5709,-0.5701,-0.5697,-0.5781,-0.5781,-0.5825,-0.5826,-0.5826]},{"header":{"parameterUnit":"m.s-1","parameterCategory":1,"la1":30.2991,"la2":30.254,"lo1":-89.0895,"lo2":-89.0444,"dy":0.0017,"dx":0.0017,"nx":28,"ny":28,"refTime":"2023-07-23T03:00:00:Z","depth":0,"parameterNumber":3,"parameterNumberName":"V-component_of_WINDS"},"data":[0,0,0,0,0,0,0,0,0,0,0,0,0,0,0,0,0,0,0,0,0,0,0,0,0,0,0,0,0,0,0,0,0,0,0,0,0,0,0,0,0,0,0,0,0,0,0,0,0,0,0,0,0,0,0,0,0,0,0.0336,0.0334,0,0.0188,0.0187,0.0185,0.0097,0.0097,0.0097,0.0096,-0.0061,-0.0065,-0.0068,0,0,0,0,0,0,0,0,0,0,0,0,0,0.0538,0.0535,0.0336,0.0334,0.0332,0.0189,0.0186,0.0184,0.0097,0.0097,0.0097,0.0096,-0.006,-0.0064,-0.0069,0,0,0,0,0,0,0,0,0,0,0,0,0,0.0427,0.0534,0.0336,0.0272,0.0265,0.0189,0.0186,0.0184,0.0098,0.0097,0.0096,0.0096,-0.0058,-0.0064,-0.0069,-0.0094,0,0,-0.0087,-0.0089,0,0,0,0,0,0,0,0,0.0433,0.0419,0.0283,0.0276,0.0268,0.0161,0.02,0.0091,0.0098,0.0161,0.0096,0.0096,0.0013,0.0001,-0.0025,-0.0101,-0.0108,-0.0087,-0.0091,-0.0093,-0.0095,0,0,0,0,0,0,0,0.0441,0.0425,0.0277,0.0281,0.0272,0.0249,0.0232,0.0179,0.0091,0.0155,0.0149,0.0133,0.0009,-0.002,-0.003,-0.011,-0.0087,-0.0092,-0.0096,-0.0098,-0.0213,-0.0212,0,0,0,0,0,0,0.046,0.0432,0.0282,0.0273,0.0351,0.0246,0.0227,0.0196,0.0092,0.0076,0.0133,0.0129,-0.0009,-0.0023,-0.0036,-0.007,-0.0093,-0.0099,-0.0102,-0.0213,-0.0213,-0.0212,0,0,0,0,0,0,0.0464,0.0447,0.0288,0.0351,0.0329,0.0243,0.0208,0.0193,0.0165,0.0075,0.0059,0.0121,-0.001,-0.0027,-0.0078,-0.0077,-0.0101,-0.0107,-0.0214,-0.0213,-0.0212,-0.014,0,0,0,0,0,0,0.047,0.0449,0.044,0.0351,0.0326,0.0249,0.0208,0.0191,0.0156,0.0149,0.0059,0.0044,-0.0012,-0.0069,-0.0084,-0.0085,-0.0111,-0.0214,-0.0213,-0.0212,-0.0143,-0.0137,-0.0132,0,0,0,0,0,0.0478,0.0464,0.044,0.0422,0.0313,0.025,0.0235,0.0172,0.0156,0.0145,0.0088,0.0047,-0.0074,-0.0073,-0.0091,-0.0094,-0.0214,-0.0213,-0.0213,-0.0146,-0.0138,-0.0132,0,0,0,0,0,0,0.0552,0.0451,0.0423,0.0381,0.0325,0.0235,0.0219,0.0182,0.0128,0.0123,0.0046,0.0027,-0.0016,-0.0061,-0.0058,-0.0123,-0.0149,-0.0152,-0.0092,-0.0086,-0.0081,-0.0069,-0.0116,0,0,0,0,0,0.0565,0.0524,0.0437,0.0408,0.0382,0.0306,0.0276,0.0233,0.0171,0.0146,0.0085,0.0026,-0.0026,-0.0059,-0.0111,-0.015,-0.017,-0.016,-0.0155,-0.015,-0.0151,-0.0174,-0.017,-0.0209,-0.0209,-0.0209,0,0,0.0588,0.0528,0.0506,0.0421,0.0373,0.0331,0.0286,0.0243,0.0211,0.0139,0.0088,0.0042,-0.003,-0.0074,-0.0097,-0.0112,-0.0145,-0.0149,-0.0144,-0.0149,-0.0172,-0.0169,-0.0165,-0.0208,-0.0208,-0.0209,0,0,0.0609,0.056,0.0531,0.0484,0.0413,0.0363,0.0357,0.0273,0.024,0.0188,0.0134,0.0094,0.0007,-0.0042,-0.0078,-0.0071,-0.0112,-0.0087,-0.0058,-0.0079,-0.0076,-0.0074,-0.0071,-0.0069,-0.0088,-0.0088,-0.0087,0,0.0647,0.0584,0.052,0.0482,0.0446,0.0382,0.0352,0.0309,0.0223,0.0199,0.0183,0.0074,0.0021,-0.0035,-0.0033,-0.006,-0.007,-0.0077,-0.0071,-0.007,-0.0068,-0.0066,-0.0065,-0.0084,-0.0084,-0.0085,-0.0085,0,0.0634,0.0591,0.0576,0.0498,0.046,0.0426,0.0357,0.0326,0.0288,0.0239,0.0188,0.0123,0.0057,0.004,0.0,-0.0021,-0.0028,-0.0056,-0.0084,-0.006,-0.0059,-0.0059,-0.0079,-0.008,-0.0081,-0.0082,0,0,0.0696,0.0586,0.0581,0.0546,0.0464,0.0428,0.0391,0.0329,0.0305,0.0248,0.0215,0.0144,0.0119,0.0078,0.0032,0.0014,0.0024,-0.0013,-0.0015,-0.0003,-0.0002,0.0021,0.0022,-0.0002,-0.0002,-0.0003,0.0005,0,0.0705,0.0638,0.0582,0.0535,0.0495,0.0434,0.0402,0.0347,0.0302,0.026,0.0208,0.016,0.0129,0.0104,0.0084,0.0028,0.0024,0.0026,-0.0035,-0.0036,-0.0014,0.0022,0.0045,0.0055,0.0004,0.0004,0.0004,0,0.0707,0.0657,0.0607,0.0531,0.0512,0.0484,0.0424,0.0385,0.0322,0.029,0.0246,0.02,0.0157,0.0134,0.0075,0.0078,0.005,0.0019,0.0018,0.001,-0.0014,0.0016,0.0056,0.0058,0.0004,0.0004,0.0004,0,0.0759,0.0678,0.0638,0.061,0.0519,0.0502,0.0463,0.04,0.0367,0.0313,0.0291,0.0233,0.0201,0.0156,0.0095,0.0084,0.0042,0.0014,0.0014,0.0016,0.0008,0.0009,0.0045,-0.001,-0.001,-0.001,-0.001,0,0.0776,0.0748,0.0661,0.0636,0.0603,0.0538,0.0507,0.0462,0.0407,0.0372,0.0315,0.0283,0.0204,0.0163,0.0114,0.0073,0.0059,0.0031,0.0019,0.0037,0.004,0.0017,0.0015,-0.001,-0.001,-0.001,-0.001,0,0.0827,0.0768,0.0721,0.0641,0.062,0.0599,0.053,0.0503,0.0456,0.0413,0.0398,0.0323,0.0271,0.0206,0.0133,0.0101,0.0065,0.0045,0.0087,0.008,0.0084,0.0085,0.0107,0.0107,0.0052,0.0052,0.0053,0,0.0842,0.082,0.0739,0.0713,0.0677,0.0635,0.0602,0.0537,0.0505,0.0433,0.0415,0.036,0.0312,0.0233,0.017,0.0115,0.0094,0.0105,0.0085,0.0104,0.0095,0.0097,0.0095,0.011,0.0111,0.0112,0.0113,0,0.0875,0.0848,0.0804,0.075,0.0713,0.0667,0.0618,0.0599,0.0524,0.0491,0.0439,0.0402,0.033,0.0276,0.0212,0.0171,0.0129,0.012,0.0117,0.0135,0.0161,0.0148,0.0102,0.0119,0.0119,0.0118,0.0118,0.0118,0.0909,0.0887,0.0828,0.0781,0.0738,0.0694,0.0667,0.0617,0.0573,0.0511,0.0474,0.0424,0.0362,0.0274,0.0234,0.0193,0.0178,0.0173,0.0172,0.0173,0.0179,0.0168,0.0181,0.0181,0.0181,0.0181,0.018,0,0.094,0.0899,0.0857,0.0792,0.0756,0.0723,0.0667,0.0638,0.0596,0.0543,0.0499,0.044,0.0388,0.0323,0.0266,0.0246,0.0226,0.0233,0.0234,0.0226,0.0195,0.0204,0.0251,0.0251,0.0251,0.0251,0.0251,0.0251,0.0951,0.0914,0.0879,0.082,0.0778,0.0731,0.0702,0.0662,0.062,0.0558,0.0515,0.0474,0.0416,0.0355,0.0306,0.0288,0.027,0.0284,0.0261,0.0234,0.0227,0.0221,0.0229,0.0281,0.0281,0.0294,0.0294,0.0294]}]]